Marietta McCollum Field, GA

9:08 AM EDT on September 16, 2019 (GMT -0400)
Cobb County-McCollum

Weather History for KRYY - August, 2019

Change the Weather History Date:

Monday, August 19, 2019

  Actual Average (KMGE) Record (KMGE)
Temperature  
Mean Temperature 82 °F -  
Max Temperature 91 °F 85 °F 98 °F (1999)
Min Temperature 73 °F 68 °F 67 °F (2017)
Cooling Degree Days 17    
Growing Degree Days 32 (Base 50)    
Moisture  
Dew Point 71 °F    
Average Humidity 73    
Maximum Humidity 87    
Minimum Humidity 52    
Precipitation  
Precipitation 0.00 in - - ()
Sea Level Pressure  
Sea Level Pressure 29.32 in    
Wind  
Wind Speed 2 mph (ESE)    
Max Wind Speed 9 mph    
Max Gust Speed -    
Visibility 10 miles    
Events Rain , Thunderstorm    
Averages and records for this station are not official NWS values.
T = Trace of Precipitation, MM = Missing Value Source: NWS Daily Summary

Daily Weather History Graph

Daily Weather History Graph

Search for Another Location

Airport or City:

Astronomy

Aug. 19, 2019 Rise Set
Actual Time 7:02 AM EDT 8:20 PM EDT
Civil Twilight 6:36 AM EDT 8:47 PM EDT
Nautical Twilight 6:05 AM EDT 9:18 PM EDT
Astronomical Twilight 5:32 AM EDT 9:50 PM EDT
Moon 10:52 PM EDT (8/19) 10:34 AM EDT (8/19)
Length of Visible Light 14h 10m
Length of Day
13h 18m
Waning Gibbous, 85% of the Moon is Illuminated
Aug 19
Waning Gibbous
Aug 23
Last Quarter
Aug 30
New
Sep 5
First Quarter
Sep 14
Full

Hourly Weather History & Observations

Time (EDT) Temp. Heat Index Dew Point Humidity Pressure Visibility Wind Dir Wind Speed Gust Speed Precip Events Conditions
12:50 AM 80.1 °F 82.9 °F 69.1 °F 69% 29.23 in 10.0 mi Calm Calm - N/A   Clear
1:50 AM 78.1 °F - 71.1 °F 79% 29.23 in 10.0 mi Calm Calm - N/A   Clear
2:50 AM 77.0 °F - 72.0 °F 84% 29.23 in 10.0 mi SSW 4.6 mph - N/A   Clear
3:50 AM 75.9 °F - 72.0 °F 87% 29.22 in 10.0 mi Calm Calm - N/A   Clear
4:50 AM 75.9 °F - 72.0 °F 87% 29.23 in 10.0 mi Calm Calm - N/A   Clear
5:50 AM 75.0 °F - 71.1 °F 87% 29.25 in 10.0 mi Calm Calm - N/A   Clear
6:50 AM 73.9 °F - 70.0 °F 87% 29.26 in 10.0 mi Calm Calm - N/A   Clear
7:50 AM 75.0 °F - 71.1 °F 87% 29.27 in 10.0 mi Calm Calm - N/A   Clear
8:50 AM 78.1 °F - 72.0 °F 81% 29.28 in 10.0 mi Calm Calm - N/A   Clear
9:50 AM 80.1 °F 84.2 °F 73.0 °F 79% 29.28 in 10.0 mi Calm Calm - N/A   Clear
10:50 AM 82.0 °F 87.9 °F 73.9 °F 76% 29.29 in 10.0 mi Calm Calm - N/A   Clear
11:50 AM 84.9 °F 93.3 °F 75.0 °F 72% 29.29 in 10.0 mi Calm Calm - N/A   Clear
12:50 PM 84.9 °F 92.1 °F 73.9 °F 69% 29.29 in 10.0 mi Variable 4.6 mph - N/A   Partly Cloudy
1:50 PM 89.1 °F 99.1 °F 75.0 °F 63% 29.28 in 10.0 mi Calm Calm - N/A   Clear
2:50 PM 90.0 °F 97.9 °F 73.0 °F 57% 29.24 in 10.0 mi SE 8.1 mph - N/A   Scattered Clouds
3:50 PM 91.0 °F 97.6 °F 71.1 °F 52% 29.23 in 10.0 mi SSE 8.1 mph - N/A   Scattered Clouds
3:56 PM 91.4 °F 98.4 °F 71.6 °F 52% 30.05 in 10.0 mi SSE 5.8 mph - N/A Thunderstorm Partly Cloudy
4:50 PM 84.0 °F 86.5 °F 66.9 °F 56% 29.22 in 10.0 mi East 5.8 mph - 0.00 in Rain , Thunderstorm Light Rain
5:20 PM 82.4 °F 84.6 °F 66.2 °F 58% 30.06 in 10.0 mi NNE 4.6 mph - 0.00 in Rain Light Rain
5:50 PM 81.0 °F 83.3 °F 66.9 °F 62% 29.23 in 10.0 mi East 9.2 mph - 0.00 in   Scattered Clouds
6:50 PM 79.0 °F - 66.0 °F 64% 29.21 in 10.0 mi East 6.9 mph - N/A   Mostly Cloudy
7:50 PM 79.0 °F - 66.0 °F 64% 29.25 in 10.0 mi ENE 5.8 mph - N/A   Scattered Clouds
8:50 PM 77.0 °F - 68.0 °F 74% 29.26 in 10.0 mi ESE 3.5 mph - N/A   Scattered Clouds
9:50 PM 77.0 °F - 68.0 °F 74% 29.29 in 10.0 mi East 5.8 mph - N/A   Scattered Clouds
10:50 PM 75.0 °F - 69.1 °F 82% 29.30 in 10.0 mi Calm Calm - N/A   Clear
11:50 PM 73.9 °F - 69.1 °F 85% 29.30 in 10.0 mi Variable 4.6 mph - N/A   Clear